Tracking 30505 objects as of 23-May-2025
HD Live streaming from Space Station
objects crossing your sky now

STARLINK-33723

Track STARLINK-33723 now!
10-day predictions
STARLINK-33723 is classified as:


NORAD ID: 63593
Int'l Code: 2025-076AA
Perigee: 450.0 km
Apogee: 452.3 km
Inclination: 43.0 °
Period: 93.5 minutes
Semi major axis: 6822 km
RCS: Unknown
Launch date: April 14, 2025
Source: United States (US)
Launch site: AIR FORCE EASTERN TEST RANGE (AFETR)
Your satellite tracking list
Your tracking list is empty




NASA's NSSDC Master Catalog

Two Line Element Set (TLE):
1 63593U 25076AA  25142.91668981 -.00004152  00000-0 -92178-4 0  9993
2 63593  43.0000 165.9438 0001720 268.8395 171.3346 15.40702256  7095
Source of the keplerian elements: AFSPC